{"data":{"norad_id":52452,"intl_designator":"2022-049B","name":"STARLINK-3909","alt_names":[],"object_type":"PAYLOAD","status":"ACTIVE","operator":null,"country":"US","launch_date":"2022-05-06","launch_site_code":"AFETR","launch_vehicle":null,"mission":null,"orbit_class":"UNKNOWN","rcs_meters":null,"size_class":null,"mass_kg":null,"dimensions":null,"purposes":["comms"],"wikipedia_slug":null,"has_3d_model":false,"image_url":null,"decayed_at":null,"tle_current":{"epoch":"2026-09-20T04:00:03.000096Z","epoch_age_seconds":88474,"freshness":"FRESH","line1":"1 52452U 22049B   26263.16670139  .00702630  00000+0  20092-1 0  9998","line2":"2 52452  53.1684 272.6041 0001490  85.2143  21.1893 15.33354978  5799","mean_motion":15.33354978,"eccentricity":0.000149,"inclination_deg":53.1684,"raan_deg":272.6041,"arg_perigee_deg":85.2143,"mean_anomaly_deg":21.1893,"bstar":0.020092,"rev_number":579,"period_min":93.911717812286,"perigee_km":464.79128146174,"apogee_km":466.8307779746,"semimajor_km":6843.9480297182,"source":"CELESTRAK","updated_at":"2026-09-20T09:00:40.031640Z"}}}